[[{"header":{"parameterUnit":"m.s-1","parameterCategory":1,"la1":30.2991,"la2":30.254,"lo1":-89.0895,"lo2":-89.0444,"dy":0.0017,"dx":0.0017,"nx":28,"ny":28,"refTime":"2024-12-06T09:00:00:Z","depth":0,"parameterNumber":2,"parameterNumberName":"U-component_of_WINDS"},"data":[0,0,0,0,0,0,0,0,0,0,0,0,0,0,0,0,0,0,0,0,0,0,0,0,0,0,0,0,0,0,0,0,0,0,0,0,0,0,0,0,0,0,0,0,0,0,0,0,0,0,0,0,0,0,0,0,0,0,-1.1167,-1.1167,0,-1.1183,-1.1183,-1.1183,-1.1168,-1.1167,-1.1167,-1.1166,-1.1183,-1.1184,-1.1185,0,0,0,0,0,0,0,0,0,0,0,0,0,-1.1122,-1.1123,-1.1167,-1.1167,-1.1167,-1.1183,-1.1183,-1.1183,-1.1168,-1.1167,-1.1166,-1.1166,-1.1182,-1.1183,-1.1185,0,0,0,0,0,0,0,0,0,0,0,0,0,-1.114,-1.1123,-1.1167,-1.1161,-1.1161,-1.1183,-1.1183,-1.1183,-1.1168,-1.1167,-1.1166,-1.1165,-1.1182,-1.1183,-1.1185,-1.1213,0,0,-1.1189,-1.119,0,0,0,0,0,0,0,0,-1.1139,-1.1142,-1.1162,-1.1162,-1.1161,-1.1172,-1.1173,-1.1193,-1.1168,-1.1165,-1.1166,-1.1165,-1.118,-1.1182,-1.1187,-1.1214,-1.1214,-1.119,-1.1191,-1.1191,-1.1192,0,0,0,0,0,0,0,-1.1138,-1.1141,-1.1173,-1.1162,-1.1162,-1.1158,-1.1159,-1.1177,-1.1178,-1.1166,-1.1164,-1.1167,-1.118,-1.1185,-1.1187,-1.1214,-1.119,-1.1191,-1.1192,-1.1192,-1.1264,-1.1265,0,0,0,0,0,0,-1.1137,-1.114,-1.1173,-1.1174,-1.1148,-1.1159,-1.1161,-1.117,-1.1177,-1.1178,-1.1167,-1.1166,-1.1183,-1.1185,-1.1187,-1.1221,-1.1191,-1.1193,-1.1193,-1.1264,-1.1265,-1.1266,0,0,0,0,0,0,-1.1136,-1.114,-1.1172,-1.1156,-1.116,-1.1161,-1.1171,-1.1171,-1.1176,-1.1179,-1.1179,-1.1173,-1.1182,-1.1185,-1.1206,-1.1221,-1.1193,-1.1195,-1.1262,-1.1264,-1.1265,-1.1287,0,0,0,0,0,0,-1.1135,-1.114,-1.1151,-1.1157,-1.1161,-1.1191,-1.1172,-1.1172,-1.1179,-1.1177,-1.1184,-1.1184,-1.1182,-1.1204,-1.1208,-1.1223,-1.1196,-1.1261,-1.1263,-1.1265,-1.1285,-1.1289,-1.1293,0,0,0,0,0,-1.1134,-1.1157,-1.1152,-1.1156,-1.1175,-1.1192,-1.1194,-1.1191,-1.118,-1.1191,-1.1192,-1.1184,-1.1218,-1.1207,-1.1211,-1.1226,-1.126,-1.1262,-1.1265,-1.1283,-1.1288,-1.1293,0,0,0,0,0,0,-1.1153,-1.1157,-1.1152,-1.1177,-1.1184,-1.1189,-1.1203,-1.1196,-1.1207,-1.1204,-1.12,-1.1201,-1.1224,-1.1227,-1.1213,-1.1253,-1.1238,-1.1241,-1.125,-1.1255,-1.1259,-1.1258,-1.1197,0,0,0,0,0,-1.116,-1.1173,-1.1177,-1.1199,-1.1202,-1.1202,-1.1209,-1.1206,-1.1213,-1.1216,-1.1219,-1.1226,-1.1238,-1.1247,-1.1258,-1.1285,-1.1286,-1.1297,-1.1301,-1.1304,-1.1307,-1.1321,-1.1326,-1.1273,-1.1273,-1.1273,0,0,-1.1175,-1.1179,-1.1188,-1.1203,-1.1208,-1.1222,-1.1205,-1.122,-1.1231,-1.1218,-1.1239,-1.1241,-1.1249,-1.1273,-1.1283,-1.1276,-1.1322,-1.1307,-1.131,-1.1311,-1.1324,-1.1329,-1.1334,-1.1275,-1.1274,-1.1274,0,0,-1.1209,-1.1214,-1.1233,-1.1238,-1.1246,-1.1245,-1.1249,-1.1255,-1.1256,-1.1276,-1.1267,-1.1279,-1.1301,-1.1306,-1.1312,-1.1347,-1.134,-1.1351,-1.1371,-1.1385,-1.1389,-1.1393,-1.1406,-1.141,-1.1354,-1.1354,-1.1354,0,-1.1227,-1.1248,-1.1243,-1.126,-1.1266,-1.1255,-1.1274,-1.1279,-1.1291,-1.1295,-1.1286,-1.1313,-1.1317,-1.1342,-1.1351,-1.1355,-1.136,-1.1351,-1.1389,-1.1393,-1.1396,-1.1408,-1.1413,-1.1355,-1.1355,-1.1355,-1.1355,0,-1.127,-1.1284,-1.1299,-1.1309,-1.1317,-1.1335,-1.1333,-1.1341,-1.1337,-1.1337,-1.1358,-1.1362,-1.1374,-1.138,-1.1376,-1.1404,-1.1399,-1.139,-1.1374,-1.1403,-1.1414,-1.1419,-1.1357,-1.1357,-1.1356,-1.1356,0,0,-1.1318,-1.1325,-1.1331,-1.1335,-1.1342,-1.1353,-1.137,-1.1381,-1.1389,-1.1397,-1.1411,-1.1428,-1.1419,-1.1426,-1.1422,-1.1434,-1.1462,-1.1423,-1.1423,-1.1431,-1.1494,-1.1501,-1.1507,-1.1457,-1.1458,-1.1458,-1.1493,0,-1.1353,-1.1383,-1.1378,-1.1406,-1.142,-1.1409,-1.1423,-1.1429,-1.1429,-1.144,-1.144,-1.1453,-1.144,-1.1444,-1.1455,-1.1456,-1.1475,-1.1454,-1.147,-1.1471,-1.1469,-1.1513,-1.1521,-1.1554,-1.1498,-1.1498,-1.1499,0,-1.1399,-1.1408,-1.1437,-1.1441,-1.1447,-1.146,-1.147,-1.1481,-1.1487,-1.1486,-1.1493,-1.1486,-1.1503,-1.1486,-1.1509,-1.1495,-1.1501,-1.1502,-1.1503,-1.1505,-1.1487,-1.1516,-1.1564,-1.1569,-1.1506,-1.1505,-1.1505,0,-1.1432,-1.1451,-1.1471,-1.1475,-1.148,-1.149,-1.1493,-1.1498,-1.1505,-1.1513,-1.1518,-1.1528,-1.1534,-1.1542,-1.1538,-1.1527,-1.1561,-1.1545,-1.1561,-1.1562,-1.157,-1.157,-1.162,-1.1573,-1.1573,-1.1573,-1.1573,0,-1.1472,-1.149,-1.1486,-1.1498,-1.1518,-1.1513,-1.1533,-1.1534,-1.1538,-1.1551,-1.1541,-1.1553,-1.1548,-1.1559,-1.1556,-1.1575,-1.1578,-1.1578,-1.1577,-1.1579,-1.1579,-1.1584,-1.1582,-1.1574,-1.1574,-1.1574,-1.1573,0,-1.1512,-1.151,-1.1531,-1.1534,-1.1535,-1.155,-1.1553,-1.1564,-1.1563,-1.1579,-1.1582,-1.1581,-1.1593,-1.1591,-1.1604,-1.1603,-1.1627,-1.1623,-1.1625,-1.1624,-1.1641,-1.164,-1.1696,-1.1704,-1.1652,-1.1652,-1.1652,0,-1.1539,-1.1553,-1.1557,-1.1565,-1.1568,-1.158,-1.1587,-1.1582,-1.1589,-1.1596,-1.1607,-1.1619,-1.1628,-1.1648,-1.1649,-1.1659,-1.1656,-1.1675,-1.1657,-1.1659,-1.1656,-1.1656,-1.1657,-1.1679,-1.1679,-1.168,-1.168,0,-1.1586,-1.1584,-1.1594,-1.1604,-1.1612,-1.162,-1.1626,-1.1633,-1.1628,-1.1637,-1.165,-1.1657,-1.167,-1.1682,-1.1692,-1.1694,-1.1686,-1.1685,-1.169,-1.1693,-1.1693,-1.1693,-1.1635,-1.1684,-1.1684,-1.1684,-1.1683,-1.1683,-1.162,-1.1632,-1.1637,-1.1649,-1.1653,-1.1659,-1.167,-1.167,-1.168,-1.1691,-1.1687,-1.1702,-1.1706,-1.1718,-1.1722,-1.1733,-1.1725,-1.1732,-1.1734,-1.1736,-1.1738,-1.1691,-1.1734,-1.1734,-1.1734,-1.1734,-1.1734,0,-1.1667,-1.167,-1.168,-1.169,-1.1699,-1.169,-1.1696,-1.1705,-1.1718,-1.1723,-1.1732,-1.1746,-1.1757,-1.1757,-1.1768,-1.1776,-1.1773,-1.1779,-1.1779,-1.178,-1.1744,-1.1739,-1.1782,-1.1782,-1.1782,-1.1782,-1.1782,-1.1782,-1.1693,-1.1712,-1.1711,-1.1732,-1.1734,-1.1748,-1.1752,-1.1758,-1.1762,-1.1778,-1.1787,-1.1787,-1.179,-1.1801,-1.181,-1.181,-1.1814,-1.1822,-1.1821,-1.1787,-1.1782,-1.1778,-1.1773,-1.1823,-1.1823,-1.1856,-1.1856,-1.1857]},{"header":{"parameterUnit":"m.s-1","parameterCategory":1,"la1":30.2991,"la2":30.254,"lo1":-89.0895,"lo2":-89.0444,"dy":0.0017,"dx":0.0017,"nx":28,"ny":28,"refTime":"2024-12-06T09:00:00:Z","depth":0,"parameterNumber":3,"parameterNumberName":"V-component_of_WINDS"},"data":[0,0,0,0,0,0,0,0,0,0,0,0,0,0,0,0,0,0,0,0,0,0,0,0,0,0,0,0,0,0,0,0,0,0,0,0,0,0,0,0,0,0,0,0,0,0,0,0,0,0,0,0,0,0,0,0,0,0,-5.7294,-5.7295,0,-5.7372,-5.7373,-5.7374,-5.7335,-5.7333,-5.7331,-5.733,-5.7404,-5.7408,-5.7412,0,0,0,0,0,0,0,0,0,0,0,0,0,-5.7107,-5.7111,-5.7294,-5.7295,-5.7296,-5.7372,-5.7373,-5.7374,-5.7336,-5.7333,-5.7331,-5.7329,-5.7403,-5.7407,-5.7412,0,0,0,0,0,0,0,0,0,0,0,0,0,-5.7187,-5.7112,-5.7294,-5.7286,-5.7286,-5.7372,-5.7373,-5.7375,-5.7336,-5.7333,-5.733,-5.7328,-5.7401,-5.7407,-5.7413,-5.7508,0,0,-5.743,-5.7433,0,0,0,0,0,0,0,0,-5.7182,-5.7194,-5.7286,-5.7287,-5.7287,-5.7341,-5.7334,-5.7419,-5.7337,-5.7317,-5.733,-5.7326,-5.7385,-5.7392,-5.7413,-5.7512,-5.7515,-5.7431,-5.7434,-5.7437,-5.7438,0,0,0,0,0,0,0,-5.7177,-5.719,-5.7325,-5.7288,-5.7288,-5.7277,-5.7285,-5.735,-5.7367,-5.7319,-5.7316,-5.7326,-5.7385,-5.7408,-5.7415,-5.7516,-5.7431,-5.7436,-5.7439,-5.7441,-5.7699,-5.7702,0,0,0,0,0,0,-5.7172,-5.7186,-5.7322,-5.7327,-5.7227,-5.7283,-5.7292,-5.7327,-5.7366,-5.7369,-5.7329,-5.7324,-5.7399,-5.7408,-5.7417,-5.7533,-5.7437,-5.7442,-5.7445,-5.7695,-5.7699,-5.7703,0,0,0,0,0,0,-5.7169,-5.7185,-5.7319,-5.7256,-5.7272,-5.729,-5.7329,-5.733,-5.7353,-5.7374,-5.7376,-5.735,-5.7397,-5.7409,-5.7487,-5.7535,-5.7445,-5.745,-5.7691,-5.7697,-5.7701,-5.7766,0,0,0,0,0,0,-5.7163,-5.7184,-5.7222,-5.7257,-5.7276,-5.7389,-5.7332,-5.7334,-5.7364,-5.7358,-5.7394,-5.7397,-5.7396,-5.7478,-5.7492,-5.7542,-5.7454,-5.7687,-5.7694,-5.77,-5.7759,-5.7772,-5.7784,0,0,0,0,0,-5.7157,-5.7235,-5.7224,-5.724,-5.7324,-5.7392,-5.7403,-5.7402,-5.7368,-5.7405,-5.7419,-5.7396,-5.7527,-5.7487,-5.7502,-5.7554,-5.7684,-5.7692,-5.7699,-5.7754,-5.777,-5.7783,0,0,0,0,0,0,-5.7202,-5.724,-5.7227,-5.732,-5.7354,-5.7386,-5.7433,-5.7418,-5.746,-5.7454,-5.7448,-5.7457,-5.7538,-5.7553,-5.7507,-5.7649,-5.76,-5.7611,-5.7637,-5.7652,-5.7664,-5.7659,-5.7459,0,0,0,0,0,-5.7224,-5.7278,-5.7306,-5.7385,-5.7403,-5.7415,-5.7445,-5.7441,-5.7475,-5.7489,-5.7508,-5.754,-5.7589,-5.7621,-5.7667,-5.7761,-5.7768,-5.7804,-5.7816,-5.7826,-5.7836,-5.7888,-5.7904,-5.7728,-5.7728,-5.7728,0,0,-5.7267,-5.7294,-5.7328,-5.7395,-5.7421,-5.7476,-5.7427,-5.7487,-5.7528,-5.7497,-5.7573,-5.7588,-5.7623,-5.771,-5.775,-5.7726,-5.7886,-5.7836,-5.7843,-5.7848,-5.7897,-5.7914,-5.7929,-5.7733,-5.7732,-5.7731,0,0,-5.7375,-5.7401,-5.747,-5.7498,-5.7538,-5.7546,-5.7562,-5.7597,-5.7607,-5.7683,-5.7662,-5.7709,-5.7793,-5.782,-5.7844,-5.7964,-5.7944,-5.7978,-5.8042,-5.8093,-5.8106,-5.8119,-5.8163,-5.8178,-5.7988,-5.7988,-5.7988,0,-5.7424,-5.7508,-5.7507,-5.757,-5.76,-5.7577,-5.7647,-5.7672,-5.7725,-5.7745,-5.7718,-5.7824,-5.7846,-5.794,-5.7969,-5.7989,-5.8008,-5.7975,-5.8105,-5.8117,-5.8129,-5.817,-5.8187,-5.7992,-5.7992,-5.7991,-5.7991,0,-5.7566,-5.7625,-5.7676,-5.773,-5.7766,-5.7831,-5.7839,-5.7875,-5.7868,-5.7879,-5.7957,-5.7983,-5.8034,-5.8056,-5.8049,-5.8149,-5.8133,-5.8105,-5.8056,-5.815,-5.8189,-5.8204,-5.7998,-5.7996,-5.7995,-5.7994,0,0,-5.7705,-5.776,-5.7778,-5.7803,-5.7847,-5.7891,-5.7955,-5.8008,-5.8039,-5.8076,-5.813,-5.8202,-5.8177,-5.8205,-5.8201,-5.8246,-5.834,-5.8213,-5.8213,-5.8236,-5.8453,-5.8474,-5.8493,-5.8327,-5.833,-5.8333,-5.845,0,-5.7817,-5.7933,-5.7935,-5.804,-5.8095,-5.8074,-5.813,-5.8162,-5.8173,-5.8219,-5.8231,-5.8283,-5.8246,-5.8263,-5.8306,-5.832,-5.8384,-5.8311,-5.8377,-5.8379,-5.837,-5.8513,-5.8536,-5.8646,-5.8465,-5.8468,-5.847,0,-5.7964,-5.8009,-5.8121,-5.8158,-5.818,-5.8231,-5.828,-5.8325,-5.836,-5.8365,-5.8398,-5.8387,-5.8452,-5.84,-5.8489,-5.844,-5.8466,-5.8477,-5.8481,-5.8488,-5.8431,-5.8525,-5.8681,-5.8698,-5.8494,-5.8492,-5.849,0,-5.8056,-5.8143,-5.8222,-5.8244,-5.8289,-5.8325,-5.8345,-5.8378,-5.841,-5.8451,-5.8472,-5.852,-5.8546,-5.8583,-5.8585,-5.8548,-5.8675,-5.8624,-5.8681,-5.8681,-5.871,-5.8708,-5.8873,-5.8725,-5.8725,-5.8725,-5.8724,0,-5.8182,-5.8251,-5.8265,-5.8313,-5.839,-5.8391,-5.8466,-5.8483,-5.8512,-5.8563,-5.8546,-5.8593,-5.8593,-5.8641,-5.8642,-5.8717,-5.8728,-5.8733,-5.8733,-5.8736,-5.8736,-5.8754,-5.8747,-5.8729,-5.8728,-5.8727,-5.8726,0,-5.8298,-5.831,-5.8394,-5.8431,-5.8441,-5.8497,-5.8527,-5.8572,-5.8583,-5.8647,-5.8662,-5.8677,-5.8733,-5.8739,-5.8802,-5.8803,-5.8893,-5.8884,-5.8882,-5.8881,-5.8939,-5.8934,-5.9122,-5.9147,-5.8982,-5.8983,-5.8985,0,-5.8378,-5.8432,-5.8475,-5.8509,-5.8531,-5.8585,-5.8619,-5.8621,-5.8656,-5.8701,-5.8741,-5.8796,-5.884,-5.8929,-5.8945,-5.8994,-5.8986,-5.9049,-5.8993,-5.8995,-5.8989,-5.8986,-5.8992,-5.906,-5.9062,-5.9063,-5.9065,0,-5.852,-5.8524,-5.8573,-5.8626,-5.8667,-5.8708,-5.8746,-5.8774,-5.878,-5.882,-5.8878,-5.8913,-5.8979,-5.9033,-5.9082,-5.91,-5.9084,-5.9082,-5.9098,-5.9102,-5.9099,-5.9103,-5.8913,-5.9078,-5.9077,-5.9076,-5.9075,-5.9074,-5.8622,-5.8669,-5.8707,-5.8764,-5.8793,-5.8829,-5.8875,-5.8892,-5.8941,-5.8997,-5.8994,-5.9059,-5.9093,-5.9156,-5.9179,-5.9228,-5.9207,-5.923,-5.9236,-5.9242,-5.9249,-5.9091,-5.9236,-5.9236,-5.9236,-5.9235,-5.9235,0,-5.8764,-5.8788,-5.884,-5.8895,-5.894,-5.8922,-5.8963,-5.9001,-5.9059,-5.9093,-5.9137,-5.9204,-5.9257,-5.9278,-5.9329,-5.9365,-5.9358,-5.9378,-5.9376,-5.9381,-5.9264,-5.9245,-5.9382,-5.9382,-5.9382,-5.9382,-5.9382,-5.9382,-5.8843,-5.8923,-5.8931,-5.9025,-5.9048,-5.9113,-5.9138,-5.9171,-5.9199,-5.9276,-5.9321,-5.9334,-5.9363,-5.9416,-5.9464,-5.9468,-5.9488,-5.9512,-5.9513,-5.9404,-5.9389,-5.9375,-5.9358,-5.9516,-5.9516,-5.9626,-5.9627,-5.9628]}]]